Hourly Data Report for September 26, 2017

All times are specified in Local Standard Time (LST). Add 1 hour to adjust for Daylight Saving Time where and when it is observed.

GRAND MANAN SAR CS
NEW BRUNSWICK

44°42'43.400" N
66°48'06.900" W
78.20 m
8101925
71030
XGM

Download Data

Hourly Data (September 2017)
Hourly Data Report for September 26, 2017
Temp Definition
°C
Dew Point Temp Definition
°C
Rel Hum Definition
%
Wind Dir Definition
10's deg

Wind Spd Definition
km/h
Visibility Definition
km
Stn Press Definition
kPa
Hmdx Definition


Wind Chill Definition


Weather Definition


TIME
00:00 17.2 16.0 92 24 12   100.78     LegendNANA
01:00 15.8 14.8 94 23 11   100.78     LegendNANA
02:00 16.2 15.9 98 24 15   100.79     LegendNANA
03:00 15.7 15.5 99 25 14   100.78     LegendNANA
04:00 15.4 15.2 99 26 15   100.77     LegendNANA
05:00 15.9 15.8 99 25 12   100.71     LegendNANA
06:00 15.5 15.2 99 29 7   100.76     LegendNANA
07:00 14.7 14.2 97 23 8   100.79     LegendNANA
08:00 16.2 15.4 95 24 11   100.77     LegendNANA
09:00 20.0 17.7 87 24 12   100.76 26   LegendNANA
10:00 21.7 17.7 78 24 15   100.75 27   LegendNANA
11:00 24.0 18.2 70 26 15   100.73 30   LegendNANA
12:00 23.9 17.5 68 25 16   100.68 30   LegendNANA
13:00 24.5 17.2 64 23 13   100.64 30   LegendNANA
14:00 24.1 18.1 69 23 16   100.64 30   LegendNANA
15:00 23.5 18.1 72 24 15   100.60 30   LegendNANA
16:00 22.2 17.8 76 24 15   100.61 28   LegendNANA
17:00 20.4 17.1 81 23 16   100.59 26   LegendNANA
18:00 19.0 17.4 90 23 12   100.59     LegendNANA
19:00 18.0 17.3 96 23 12   100.57     LegendNANA
20:00 18.1 17.6 97 24 12   100.60     LegendNANA
21:00 18.0 17.5 97 23 10   100.58     LegendNANA
22:00 17.9 17.4 97 24 9   100.57     LegendNANA
23:00 17.0 16.6 98 23 8   100.59     LegendNANA

Notes on Data Quality.

Legend

  • E = Estimated
  • M = Missing
  • NA = Not Available
  • ‡ = Partner data that is not subject to review by the National Climate Archives
Date modified: